Location: Home
(42.5358°N, 72.7383°W)
Time: 20:33:56
(UTC-05:00)

Explorer 7 - Pass Details

Date: 01 December 2021
Orbit: 483 x 674 km, 50.3° (Epoch: 23 January)

Event Time Altitude Azimuth Distance (km) Brightness Sun altitude
Rises 06:28:48 0° 234° (SW) 2,809 10.1 -6.2°
Reaches altitude 10° 06:31:08 10° 233° (SW) 1,877 9.3 -5.8°
Maximum altitude 06:35:24 79° 148° (SSE) 563 7.0 -5.1°
Drops below altitude 10° 06:39:25 10° 61° (ENE) 1,770 9.9 -4.4°
Sets 06:41:34 0° 60° (ENE) 2,633 10.8 -4.0°
